Location: Juzet
(42.9779°N, 0.7597°E)
Time: 08:26:49
(UTC+00:00)

CZ-4C R/B - Pass Details

Date: 14 July 2020
Orbit: 632 x 1369 km, 63.4° (Epoch: 04 August)

Event Time Altitude Azimuth Distance (km) Brightness Sun altitude
Rises 00:15:48 0° 317° (NW) 3,950 6.3 -25.3°
Reaches altitude 10° 00:18:32 10° 310° (NW) 3,087 5.5 -25.3°
Maximum altitude 00:25:22 38° 245° (WSW) 1,850 3.6 -25.2°
Enters shadow 00:26:33 37° 227° (SW) 1,920 3.6 -25.2°
